Аэропорт
Астана (UACC)

 UACC / TSE
ЗЦ Центральная Азия
Астана (UACC)
Астана (UACC)
 51.02220, 71.46690  / 1165 ft

 UACC 191200Z 02004MPS 350V060 9999 BKN046 19/06 Q1011 R04/0///70 NOSIG RMK QFE727/0969

UACC_aip_1708
показать схемы
Название сценария Тип сценария Flight Simulator 9 Flight Simulator X Prepar3D v2 Prepar3D v3 Prepar3D v4 xPlane
Лёгкий сценарий аэропорта г. Астаны бесплатный


2019 © VATRUS division (Privacy Policy)